User: anonymous   Login
Location: Ciserano
(45.5833°N, 9.6000°E)
Time: 14:09:34
(UTC+00:00)
Language:

Cosmos 1295 Rocket - Orbit

View from above orbital plane
View from above orbital plane
View from above satellite
View from above satellite

Ground track
Ground track

The orbit data is extracted from the following two-line orbital elements,

1 12682U 81077B   21125.87197238  .00000030  00000-0  14890-4 0  9997
2 12682  82.9204  34.9854 0033337 326.8936  33.0134 13.78607125998061
Epoch (UTC): 05 May 2021 20:55:38
Eccentricity: 0.0033337
inclination: 82.9204°
perigee height: 944 km
apogee height: 993 km
right ascension of ascending node: 34.9854°
argument of perigee: 326.8936°
revolutions per day: 13.78607125
mean anomaly at epoch: 33.0134°
orbit number at epoch: 99806

The dashed part of the orbit path shows where the satellite is in the earth's shadow,  

DLR